Regional Weather Roundup
Issued by NWS State College, PA

Home | Current Version | Previous Version | Text Only | Print | Product List | Glossary On
Versions: 1 2 3 4 5 6 7 8 9 10 11 12 13 14 15 16 17 18 19 20 21 22 23 24 25 26 27 28 29 30 31 32 33 34 35 36 37 38 39 40 41 42 43 44 45 46 47 48 49 50
000
ASUS41 KCTP 210703
RWRCTP

REGIONAL WEATHER ROUNDUP
NATIONAL WEATHER SERVICE STATE COLLEGE PA
300 AM EDT SUN SEP 21 2014

Note: "fair" indicates few or no clouds below 12,000 feet with no
significant weather and/or obstructions to visibility.

* = STATION THAT DOES NOT REPORT PRECIPITATION /E.G. RAIN...SNOW...ETC/
    THUNDER OR FOG.

PAZ002>004-007>009-013>016-020>023-029>032-210800-
WESTERN PENNSYLVANIA

CITY           SKY/WX    TMP DP  RH WIND       PRES   REMARKS
ERIE           MOCLDY    69  61  75 S13       29.78F
MEADVILLE      MOCLDY    66  61  84 S7        29.84F
FRANKLIN*      MOCLDY    64  59  82 S10       29.87F
NEW CASTLE     NOT AVBL
BEAVER COUNTY  NOT AVBL
BUTLER*        MOCLDY    66  61  82 S6        29.90F
PITTSBURGH INT CLOUDY    67  62  84 S6        29.88F
PITTSBURGH     MOCLDY    65  59  81 S9        29.88F
INDIANA*       MOCLDY    63  59  88 CALM      29.94F
LATROBE        CLEAR     63  61  94 SW3       29.91F
WASHINGTON CO* PTCLDY    64  61  88 S5        29.90F
$$

PAZ004>006-010>012-017>019-024>028-033>037-041-042-045-046-049>053-210800-
CENTRAL PENNSYLVANIA

CITY           SKY/WX    TMP DP  RH WIND       PRES   REMARKS
BRADFORD       MOCLDY    64  58  80 S7G17     29.89F
DUBOIS         CLEAR     62  58  86 SE5       29.89F
CLEARFIELD     MOCLDY    62  56  80 SW5       29.92F
JOHNSTOWN      PTCLDY    60  54  80 S5        29.95F
ALTOONA        MOCLDY    61  56  83 SW7       29.95F
STATE COLLEGE  CLEAR     62  56  80 SW6       29.93F
WILLIAMSPORT   CLEAR     66  58  75 VRB6      29.92F
SELINSGROVE    MOCLDY    61  59  93 CALM      29.94F
FT INDIANTOWN  MOCLDY    55  55 100 CALM      29.97F
CAPITAL CITY   CLEAR     61  59  93 SE7       29.95F
HARRISBURG     PTCLDY    61  58  90 E3        29.95F
YORK           CLEAR     54  52  93 CALM      29.96F FOG
$$

PAZ038>040-043-044-047-048-054-055-060>062-067>071-210800-
EASTERN PENNSYLVANIA

CITY           SKY/WX    TMP DP  RH WIND       PRES   REMARKS
SCRANTON       CLEAR     59  56  89 CALM      29.97F
MOUNT POCONO   MOCLDY    54  52  93 CALM      30.01F FOG
ALLENTOWN      CLOUDY    57  54  89 NW3       29.98F
QUAKERTOWN*    CLOUDY    61  59  94 CALM      29.99F
READING        CLEAR     58  55  90 CALM      29.96F FOG
LANCASTER      FOG       56  56 100 E6        29.96F VSB 1/2
COATESVILLE    CLOUDY    64  63  94 CALM      29.99F
POTTSTOWN      CLOUDY    62  60  93 CALM      29.99F
BLUE BELL      CLOUDY    66  64  94 CALM      29.98F
DOYLESTOWN     CLOUDY    65  63  93 W3        29.98F
WILLOW GROVE   NOT AVBL
NORTH PHILA    CLOUDY    68  63  84 CALM      29.99F
PHILADELPHIA   CLOUDY    69  64  84 N3        29.98F
$$



USA.gov is the U.S. government's official web portal to all federal, state and local government web resources and services.